This demonstration page uses our WeatherBlox Daily Observations layout. Learn more.

Left ArrowRight Arrow

Hourly Observations for June 23, 2015

Temp ( °F °C ) Dew Point ( °F °C ) Humidity (%) Winds ( mph kmh ) Pressure ( in mb ) Visibility ( mi km ) Precip ( " mm )
12:53 am 00:53 Partly Cloudy 56 13.3 43 6.1 62 62 S 12 19 29.96 1015 10 16 0.00 0.00
1:53 am 01:53 Clear 57 13.9 42 5.6 58 58 WSW 3 6 29.97 1015 10 16 0.00 0.00
2:53 am 02:53 Mostly Clear 53 11.7 42 5.6 66 66 NW 8 13 29.97 1015 10 16 0.00 0.00
3:53 am 03:53 Mostly Clear 52 11.1 43 6.1 72 72 Calm 29.97 1015 10 16 0.00 0.00
4:53 am 04:53 Clear 49 9.4 42 5.6 77 77 WSW 5 7 29.98 1015 10 16 0.00 0.00
5:53 am 05:53 Sunny 48 8.9 43 6.1 83 83 SW 9 15 29.99 1016 10 16 0.00 0.00
6:53 am 06:53 Cloudy 56 13.3 45 7.2 67 67 WSW 9 15 30.00 1016 10 16 0.00 0.00
7:53 am 07:53 Mostly Sunny 62 16.7 46 7.8 56 56 WSW 10 17 29.98 1015 10 16 0.00 0.00
8:53 am 08:53 Sunny 71 21.7 44 6.7 38 38 WSW 15 24 29.98 1015 10 16 0.00 0.00
9:53 am 09:53 Sunny 74 23.3 41 5 31 31 SW 15 24 29.98 1015 10 16 0.00 0.00
10:53 am 10:53 Sunny 77 25 41 5 28 28 WSW 14 22 29.98 1015 10 16 0.00 0.00
11:53 am 11:53 Mostly Sunny 80 26.7 43 6.1 27 27 SSW 16 26 29.97 1015 10 16 0.00 0.00
12:53 pm 12:53 Mostly Sunny 85 29.4 38 3.3 19 19 SSW 16 26 29.94 1014 10 16 0.00 0.00
1:53 pm 13:53 Mostly Sunny 85 29.4 35 1.7 17 17 SW 13 20 29.93 1013 10 16 0.00 0.00
2:53 pm 14:53 Partly Cloudy 86 30 33 0.6 15 15 W 14 22 29.91 1013 10 16 0.00 0.00
3:53 pm 15:53 Mostly Sunny 87 30.6 31 -0.6 13 13 W 14 22 29.91 1013 10 16 0.00 0.00
4:53 pm 16:53 Mostly Sunny 85 29.4 34 1.1 16 16 WNW 16 26 29.91 1013 10 16 0.00 0.00
5:53 pm 17:53 Sunny 87 30.6 35 1.7 16 16 WNW 15 24 29.88 1012 10 16 0.00 0.00
6:53 pm 18:53 Sunny 83 28.3 35 1.7 18 18 WNW 12 19 29.88 1012 10 16 0.00 0.00
7:53 pm 19:53 Mostly Sunny 81 27.2 36 2.2 20 20 NNW 3 6 29.87 1011 10 16 0.00 0.00
8:17 pm 20:17 Mostly Cloudy with Nearby Thunderstorms 72 22.2 41 5 33 33 NW 35 56 29.88 1012 10 16 0.00 0.00
8:32 pm 20:32 Mostly Cloudy with Rain 63 17 48 9 59 59 NNW 30 48 29.91 1013 6 10 0.00 0.00
8:53 pm 20:53 Partly Cloudy 66 18.9 48 8.9 52 52 N 30 48 29.93 1014 10 16 0.00 0.03
9:53 pm 21:53 Clear 62 16.7 51 10.6 67 67 ENE 16 26 29.97 1015 10 16 0.01 0.25
10:53 pm 22:53 Clear 59 15 52 11.1 78 78 ENE 8 13 29.99 1016 10 16 0.00 0.00
11:50 pm 23:50 Cloudy with Thunderstorms 59 15 54 12 82 82 NW 6 9 30.00 1016 10 16 0.00 0.00
11:51 pm 23:51 Cloudy with Thunderstorms 57 14 54 12 88 88 WNW 5 7 30.00 1016 10 16 0.00 0.00

Powered by AerisWeather